www.pogodaiklimat.ru

Погода и климат >> Архив погоды >> Литва >> Нида


ПОГОДА в Ниде

  • Прогноз погоды в Ниде
  • Монитор погоды в Ниде

АРХИВ ПОГОДЫ в Ниде

Время (UTC), дата Ветер
(напр.,м/с)
 
Видим.   Явления Облачность Т
(С)
Тd
(С)
f
(%)
Тe
(С)
Тes
(С)
Комфортность P
(гПа)
Po
(гПа)
Тmin
(С)
Tmax
(С)
R
(мм)
R24
(мм)
S
(см)
21 16.05 СВ 4-5
{11}
20 км 9/9 600 м
[]
+14.8 +11.2 79 +14 +14 1019.3 1019.0
03 17.05 В 5-7
{9}
20 км слаб. дождь 10/10 1000 м
[]
+14.1 +10.8 81 +12 +12 1017.0 1016.7 0.0
06 17.05 В 8-10
{11}
17 км слаб. ливневой дождь 10/6 1110 м
[Cb cap As op]
+12.3 +10.6 89 +9 +9 1016.9 1016.5 +12.2 1
09 17.05 В 8-12
{12}
20 км в посл. час дождь {ливн. осадки} 10/8 600 м
[Cb cap As op]
+12.1 +10.6 91 +9 +9 1016.2 1015.8
12 17.05 В 6-8
{12}
20 км {ливн. осадки, дождь} 9/8 540 м
[Cb cap Ac As]
+15.0 +12.7 86 +13 +14 1016.0 1015.7
15 17.05 В 4-5
{8}
20 км {ливн. осадки} 8/8 600 м
[Cb cap]
+16.5 +13.9 85 +16 +17 1015.1 1014.7
18 17.05 В 4-5
{7}
20 км {ливн. осадки} 3/1 1000 м
[Sc Ac trans Ci fib]
+16.5 +13.8 84 +16 +16 1014.7 1014.3 +17.2 2
21 17.05 В 4-5
{6}
20 км ясно +15.4 +13.7 90 +14 +14 1015.4 1015.1
03 18.05 СВ 1-3
{5}
19 км ясно +13.6 +12.8 95 +14 +14 1015.2 1014.9
06 18.05 С 2-4
{4}
20 км 9/0
[Ci sp]
+15.3 +13.7 90 +15 +19 1014.7 1014.3 +13.4
09 18.05 ЮВ 5-6
{6}
20 км гроза, ливневой дождь 10/10 570 м
[Cb cap]
+16.3 +14.9 91 +15 +15 1015.1 1014.7
12 18.05 Ю 3-4
{9}
10 км гроза, ливневой дождь 10/10 600 м
[Cb cap]
+15.7 +14.6 93 +15 +15 1014.4 1014.1
15 18.05 СВ 4-7
{7}
16 км в посл. час ливневой дождь {гроза} 9/1 600 м
[Cb cap Ac cuf Ci ing]
+16.1 +14.9 93 +15 +17 1012.7 1012.3
18 18.05 СВ 2-3
{7}
19 км {гроза, ливн. осадки} 9/1 600 м
[Cb cap Ac cast Ci ing]
+16.1 +15.6 97 +16 +16 1012.3 1011.9 +17.5 7
21 18.05 СВ 4-6
{6}
17 км ясно +15.8 +15.3 97 +15 +15 1012.4 1012.1
00 19.05 С 2-4
{9}
20 км 9/0
[]
+15.5 +14.9 96 +15 +15 1011.4 1011.1 0.4
03 19.05 штиль 0-2
{6}
17 км слаб. ливневой дождь 9/0
[]
+15.3 +14.8 97 +15 +15 1011.8 1011.5 0.4
06 19.05 СВ 2-4
{6}
18 км в посл. час ливневой дождь 9/8 600 м
[Cb cap Ac trans Ci sp]
+15.4 +14.8 96 +15 +16 1012.1 1011.7 +14.8 4
09 19.05 СВ 2-4
{4}
20 км 8/3 1000 м
[Sc Ac trans Cc]
+18.7 +15.4 81 +20 +26 1011.7 1011.3
12 19.05 В 3-4
{4}
20 км 9/4 600 м
[Cu hum Ac trans Ci sp]
+22.5 +16.8 70 +27 +31 душно 1011.3 1011.0
15 19.05 В 4-5
{6}
20 км 8/1 1000 м
[Sc Ac trans Cc]
+20.8 +14.0 65 +24 +26 комфорт 1010.1 1009.7
18 19.05 ЮВ 6-8
{8}
20 км слаб. ливневой дождь 10/6 300 м
[Cb cap Ac As]
+19.7 +13.4 67 +21 +21 комфорт 1010.1 1009.7 +23.2 0.0
21 19.05 В 3-4
{8}
20 км ясно +17.3 +13.8 80 +17 +17 1010.5 1010.2
00 20.05 ЮВ 4-6
{7}
20 км ясно +16.4 +14.2 87 +16 +16 1010.4 1010.1
03 20.05 ЮВ 6-7
{7}
20 км ясно +16.0 +14.0 88 +15 +15 1010.3 1010.0
06 20.05 В 5-6
{8}
20 км 1/0
[Ci fib]
+18.0 +14.8 82 +18 +20 1009.7 1009.3 +16.0 0.0
09 20.05 В 4-5
{7}
20 км 3/1 1000 м
[Cu med, cong Ac trans Ci sp]
+20.2 +15.3 73 +23 +30 комфорт 1009.2 1008.8
12 20.05 В 5-7
{8}
20 км 3/1 1000 м
[Cu med, cong Ac trans Ci sp]
+22.2 +15.1 64 +26 +32 душно 1008.3 1008.0
15 20.05 В 7-9
{10}
20 км 3/1 1000 м
[Cu med, cong Ci sp]
+22.2 +15.8 67 +26 +28 душно 1006.8 1006.5
18 20.05 В 6-8
{10}
20 км гроза без осадков 9/1 600 м
[Cb calv Ac lent Ci sp]
+20.5 +15.9 75 +23 +23 комфорт 1007.5 1007.1 +23.0
21 20.05 СВ 3-4
{16}
20 км слаб. ливневой дождь 6/0
[]
+17.6 +16.0 90 +18 +18 1007.8 1007.5 3
03 21.05 ЮВ 4-5
{6}
20 км ясно +17.1 +15.6 91 +17 +17 1007.9 1007.6
09 21.05 СВ 2-4
{5}
20 км 4/0
[Ac cast Cc]
+21.5 +17.5 78 +26 +36 душно 1008.4 1008.0
15 21.05 СВ 1-3
{6}
20 км гроза без осадков 8/5 300 м
[Cb cap Ac trans Ci sp]
+24.8 +17.7 65 +29 +31 душно 1006.5 1006.2
21 21.05 В 4-6
{6}
17 км ясно +20.5 +15.8 74 +24 +24 комфорт 1007.3 1007.0
03 22.05 В 3-5
{6}
20 км ясно +17.3 +15.3 88 +17 +17 1007.2 1006.9
09 22.05 штиль 0-2
{4}
20 км 3/1 600 м
[Cu hum Ci fib]
+20.6 +15.6 73 +23 +39 комфорт 1008.1 1007.7
15 22.05 СЗ 5-9
{9}
20 км 3/1 600 м
[Cb cap Ac cuf Ci ing]
+20.3 +13.4 65 +22 +25 комфорт 1008.2 1007.8
21 22.05 СЗ 3-6
{7}
20 км 1/0
[]
+17.7 +12.6 72 +18 +18 1009.0 1008.7

 

Местоположение метеостанции Нида (Литва): широта 55.32 долгота 21.02 высота над уровнем моря 3 м.

В архиве по умолчанию представлена погода в Ниде за последнюю неделю. Архивные данные за месяц целиком и за предыдущие месяцы, начиная с января 2011 года, Вы можете получить, выбрав интересующий диапазон дат из раскрывающегося списка и нажав кнопку "Ввод!".


*Определитесь, кто Вы:
робот инопланетянин человек

Внимание! Время в таблицах - всемирное. Для получения местного времени необходимо прибавить поправку, которая равна 2 ч.

Смотрите также архив погоды в соседних городах и на ближайших метеорологических станциях:

Погода в Рыбачем (Калининградская область, Россия) (21 км)
Погода в Шилуте (Литва) (27 км)
Погода в Kлайпеде (Литва) (46 км)
Погода в Советске (Калининградская область, Россия) (64 км)
Погода в Пионерском (Калининградская область, Россия) (66 км)
Погода в Калининграде (Калининградская область, Россия) (74 км)
Погода в Рыбном Порту (Калининградская область, Россия) (78 км)
Погода в Лаукуве (Литва) (83 км)
Погода в Черняховске (Калининградская область, Россия) (91 км)
Погода в Балтийске (Калининградская область, Россия) (104 км)

Пояснения к столбцам:

Ветер - указаны скорость ветра в м/с - средняя за 10 мин, порывы в срок и между сроками (в фигурных скобках) и направление, откуда дует ветер: С - северный, СВ - северо-восточный, В - восточный, ЮВ - юго-восточный, Ю - южный, ЮЗ - юго-западный, З - западный, СЗ - северо-западный.
Видимость - горизонтальная дальность видимости в метрах или километрах. При видимости от 1 до 10 км при отсутствии осадков обычно наблюдается дымка, при ухудшении видимости до 1 км и менее - туман. В сухую погоду видимость может ухудшаться дымом, пылью или мглою.
Явления - указаны атмосферные явления, наблюдавшиеся в срок или в последний час перед сроком; фигурными скобками обозначены явления, наблюдавшиеся между сроками (за 1-3 часа до срока); квадратными скобками обозначены град или гололедные отложения с указанием их диаметра в мм.
Облачность - указаны через наклонную черту общая и нижняя облачность в баллах и высота нижней границы облаков в метрах; квадратными скобками обозначены формы облаков: Ci - перистые, Cs - перисто-слоистые, Cc - перисто-кучевые, Ac - высококучевые, As - высокослоистые, Sc - слоисто-кучевые, Ns - слоисто-дождевые, Cu - кучевые, Cb - кучево-дождевые. Подробнее классификацию облаков см. в Атласе облаков (PDF).
T - Температура воздуха - температура, измеренная на высоте 2 м над землей.
Td - Температура точки росы - температура, при понижении до которой содержащийся в воздухе водяной пар достигнет насыщения.
f - Относительная влажность воздуха - влажноcть воздуха, измеренная на высоте 2 м над землей.
Te - Эффективная температура - температура, которую ощущает одетый по сезону человек в тени. Характеристика душности погоды. При расчете учитывается влияние влажности воздуха и скорости ветра на теплоощущения человека.
Tes - Эффективная температура на солнце - температура, которую ощущает человек, с поправкой на солнечный нагрев. Характеристика знойности погоды. Зависит от высоты солнца над горизонтом, облачности и скорости ветра. Ночью, в пасмурную погоду, а также при ветре 12 м/с и более поправка равна нулю.
P - Атмосферное давление - приведенное к уровню моря атмосферное давление.
Po - Атмосферное давление - измеренное на уровне метеостанции атмосферное давление.
Tmin - Минимальная температура - минимум температуры воздуха на высоте 2 м над землей.
Tmax - Максимальная температура - максимум температуры воздуха на высоте 2 м над землей.
R - Количество осадков - Количество выпавших осадков за период времени, мм. При наведении курсора мыши на число - период времени, за который выпало указанное количество осадков.
R24 - Количество осадков - Количество выпавших осадков за 24 часа, мм.
S - Снежный покров - Высота снежного покрова, см. При наведении курсора мыши на число - состояние снежного покрова и степень покрытия местности в баллах.